Location: Beneden-Haastrecht
(52.0012°N, 4.7557°E)
Time: 12:18:45
(UTC+00:00)

BREEZE-M DEB (TANK) - Pass Details

Date: 24 October 2020
Orbit: 321 x 18719 km, 52.5° (Epoch: 24 November)

Event Time Altitude Azimuth Distance (km) Brightness Sun altitude
Rises 17:21:43 0° 248° (WSW) 2,452 8.0 -9.0°
Reaches altitude 10° 17:23:02 10° 246° (WSW) 1,831 6.9 -9.2°
Maximum altitude 17:26:34 79° 159° (SSE) 980 4.0 -9.7°
Enters shadow 17:38:24 12° 76° (ENE) 5,833 7.3 -11.5°
